User: anonymous   Login
Location: Mount Graham
(32.7016°N, 109.8912°W)
Time: 02:37:50
(UTC-07:00)
Language:

Cosmos 1340 - Orbit

View from above orbital plane
View from above orbital plane
View from above satellite
View from above satellite

Ground track
Ground track

The orbit data is extracted from the following two-line orbital elements,

1 13067U 82013A   14294.25419016  .00008756  00000-0  48365-3 0  5046
2 13067 081.1924 181.9098 0003230 164.6475 334.8492 15.13805972780718
Epoch (UTC): 21 October 2014 06:06:02
Eccentricity: 0.0003230
inclination: 81.1924°
perigee height: 522 km
apogee height: 527 km
right ascension of ascending node: 181.9098°
argument of perigee: 164.6475°
revolutions per day: 15.13805972
mean anomaly at epoch: 334.8492°
orbit number at epoch: 78071

The dashed part of the orbit path shows where the satellite is in the earth's shadow,  

DLR